ALCOMSAT 1 (43039 NORAD) Tracking and Keplerian Element Data

This shows tracking and keplerian element data for the satellite.

Feedback or suggestion? Click here.




ElementValue
Catalog43039
NameALCOMSAT 1
Epoch Orbit1765
Epoch Day269.73740229
Epoch Year2022
RAAN221.2215
Inclination0.0269
Eccentricity0.0002407
Argument of Perigee327.6265
Mean Anonmoly57.3495
Mean Motion1.00271627
Decay Rate-1.83E-06
L11 43039U 17078A 22269.73740229 -.00000183 00000+0 00000+0 0 9998
L22 43039 0.0269 221.2215 0002407 327.6265 57.3495 1.00271627 17655

Live tracking and technical data element details for ALCOMSAT 1 (NORAD 43039). ALCOMSAT 1 can be tracked NOW for your location showing map with azimuth and elevation plus other details from your city location.

Track the satellite on the map from your city or location and see movement details for azimuth, elevation, latitude, longitude, range, height, and movement on the map or in text.







IsCatalogInMostPopularTable: catalog: 43039, numindb: 638
Update: records affected: 1



GetName: 43039 ALCOMSAT 1

Hit Count: updated at: Fri, 30 Sep 2022 02:48:49 GMT